STARLINK-1034

Last updated on Dec. 12, 2019, 12:02 a.m. UTC

1 44757U 19074AW  19345.58335648  .00210921  00000-0  14998-2 0  9990
2 44757  53.0098  21.5515 0001684  37.5494   9.9579 15.72720752  4735

Satellite is not in orbit.